This is the latest recevied weather packets stored in our database for station/object DW2488. If no packets are shown the sender has not sent any weather packets the latest 10 day(s).
| Time | Temp. | Humidity | Pressure | Rain* | Wind** | Luminosity | Snow |
|---|---|---|---|---|---|---|---|
| 1788536771 | 9.44° C | 78% | 1017.2 hPa | 0 mm | - | 0 W/m² | - |
| 1788535872 | 10° C | 78% | 1017.2 hPa | 0 mm | - | 0 W/m² | - |
| 1788534956 | 10° C | 77% | 1017.4 hPa | 0 mm | - | 0 W/m² | - |
| 1788534023 | 10° C | 76% | 1017.7 hPa | 0 mm | - | 0 W/m² | - |
| 1788533091 | 10.56° C | 74% | 1017.7 hPa | 0 mm | - | 0 W/m² | - |
| 1788532176 | 11.11° C | 74% | 1017.7 hPa | 0 mm | - | 0 W/m² | - |
| 1788531245 | 11.11° C | 73% | 1017.7 hPa | 0 mm | - | 0 W/m² | - |
| 1788530334 | 11.67° C | 72% | 1017.7 hPa | 0 mm | - | 0 W/m² | - |
| 1788529400 | 12.22° C | 70% | 1017.7 hPa | 0 mm | - | 0 W/m² | - |
| 1788528500 | 12.78° C | 70% | 1017.8 hPa | 0 mm | - | 0 W/m² | - |
| 1788527606 | 13.33° C | 67% | 1018 hPa | 0 mm | - | 0 W/m² | - |
| 1788526700 | 14.44° C | 65% | 1018.3 hPa | 0 mm | - | 0 W/m² | - |
| 1788525751 | 15° C | 63% | 1018.4 hPa | 0 mm | - | 0 W/m² | - |
| 1788524840 | 15.56° C | 62% | 1018.6 hPa | 0 mm | - | 0 W/m² | - |
| 1788523936 | 16.11° C | 60% | 1019 hPa | 0 mm | - | 0 W/m² | - |
| 1788523032 | 16.11° C | 60% | 1019.1 hPa | 0 mm | - | 0 W/m² | - |
| 1788522142 | 16.11° C | 61% | 1019.1 hPa | 0 mm | - | 0 W/m² | - |
| 1788521231 | 15° C | 63% | 1018.9 hPa | 0 mm | - | 0 W/m² | - |
| 1788520332 | 15.56° C | 63% | 1019.1 hPa | 0 mm | - | 0 W/m² | - |
| 1788519428 | 16.11° C | 61% | 1019.1 hPa | 0 mm | - | 0 W/m² | - |
| 1788518504 | 16.11° C | 61% | 1018.9 hPa | 0 mm | - | 0 W/m² | - |
| 1788517611 | 15.56° C | 62% | 1018.8 hPa | 0 mm | - | 0 W/m² | - |
| 1788516695 | 16.11° C | 62% | 1018.6 hPa | 0 mm | - | 0 W/m² | - |
| 1788515788 | 16.11° C | 62% | 1018.6 hPa | 0 mm | - | 0 W/m² | - |
| 1788514888 | 16.67° C | 61% | 1018.5 hPa | 0 mm | - | 0 W/m² | - |
* Rain latest hour (hover to see other rain measurements)
** Current wind speed in m/s (hover to see current wind gust speed)